User: anonymous   Login
Location: Fort Wayne
(41.1310°N, 85.1290°W)
Time: 03:10:32
(UTC-05:00)
Language:

MetOp-A - Orbit

View from above orbital plane
View from above orbital plane
View from above satellite
View from above satellite

Ground track
Ground track

The orbit data is extracted from the following two-line orbital elements,

1 29499U 06044A   18054.59589595 -.00000014 +00000-0 +13397-4 0  9993
2 29499 098.6434 114.5474 0001640 134.3828 026.2715 14.21517670588676
Epoch (UTC): 23 February 2018 14:18:05
Eccentricity: 0.0001640
inclination: 98.6434°
perigee height: 819 km
apogee height: 821 km
right ascension of ascending node: 114.5474°
argument of perigee: 134.3828°
revolutions per day: 14.21517670
mean anomaly at epoch: 26.2715°
orbit number at epoch: 58867

The dashed part of the orbit path shows where the satellite is in the earth's shadow,  

DLR